| time (UTC) | temp F | wind direction | speed knots | gust knots | rain 1hr in | rain 24hr in | rain mn in | humidity % | barometer mb |
| 20260506103738 | 42 | 246 | 1.7 | 2.6 | 0.00 | 0.00 | 0.00 | 71 | 1014.9 |
| 20260506103236 | 42 | 266 | 1.7 | 1.7 | 0.00 | 0.00 | 0.00 | 71 | 1014.8 |
| 20260506102733 | 42 | 238 | 1.7 | 1.7 | 0.00 | 0.00 | 0.00 | 71 | 1014.9 |
| 20260506102231 | 43 | 265 | 1.7 | 1.7 | 0.00 | 0.00 | 0.00 | 70 | 1014.8 |
| 20260506101728 | 43 | 180 | 2.6 | 4.3 | 0.00 | 0.00 | 0.00 | 70 | 1015.0 |
| 20260506101224 | 43 | 236 | 1.7 | 2.6 | 0.00 | 0.00 | 0.00 | 69 | 1014.7 |
| 20260506100722 | 44 | 264 | 1.7 | 2.6 | 0.00 | 0.00 | 0.00 | 68 | 1014.7 |
| 20260506100220 | 44 | 281 | 0.9 | 0.9 | 0.00 | 0.00 | 0.00 | 67 | 1014.6 |
| 20260506095718 | 45 | 257 | 2.6 | 4.3 | 0.00 | 0.00 | 0.00 | 65 | 1014.8 |
| 20260506095215 | 45 | 243 | 2.6 | 2.6 | 0.00 | 0.00 | 0.00 | 65 | 1014.7 |
| 20260506094712 | 45 | 255 | 2.6 | 2.6 | 0.00 | 0.00 | 0.00 | 66 | 1014.7 |
| 20260506094210 | 45 | 276 | 1.7 | 1.7 | 0.00 | 0.00 | 0.00 | 65 | 1014.7 |
| 20260506093709 | 46 | 305 | 0.9 | 1.7 | 0.00 | 0.00 | 0.00 | 65 | 1014.6 |
| 20260506093205 | 46 | 243 | 1.7 | 1.7 | 0.00 | 0.00 | 0.00 | 65 | 1014.4 |
| 20260506092703 | 44 | 245 | 0.9 | 1.7 | 0.00 | 0.00 | 0.00 | 68 | 1014.6 |
| 20260506092200 | 44 | 255 | 2.6 | 2.6 | 0.00 | 0.00 | 0.00 | 69 | 1014.6 |
| 20260506091658 | 44 | 282 | 0.9 | 1.7 | 0.00 | 0.00 | 0.00 | 69 | 1014.6 |
| 20260506091155 | 44 | 261 | 0.9 | 0.9 | 0.00 | 0.00 | 0.00 | 70 | 1014.6 |
| 20260506090653 | 45 | 256 | 0.0 | 0.9 | 0.00 | 0.00 | 0.00 | 69 | 1014.6 |
| 20260506090149 | 45 | 290 | 0.9 | 0.9 | 0.00 | 0.00 | 0.00 | 69 | 1014.4 |
| 20260506085646 | 45 | 261 | 0.9 | 1.7 | 0.00 | 0.00 | 0.00 | 68 | 1014.4 |
| 20260506085142 | 45 | 239 | 0.9 | 0.9 | 0.00 | 0.00 | 0.00 | 67 | 1014.4 |
| 20260506084639 | 45 | 277 | 0.9 | 0.9 | 0.00 | 0.00 | 0.00 | 68 | 1014.6 |
| 20260506084136 | 45 | 297 | 0.9 | 1.7 | 0.00 | 0.00 | 0.00 | 68 | 1014.6 |
| 20260506083633 | 46 | 308 | 0.9 | 0.9 | 0.00 | 0.00 | 0.00 | 67 | 1014.6 |
| 20260506083130 | 46 | 245 | 1.7 | 1.7 | 0.00 | 0.00 | 0.00 | 66 | 1014.6 |
| 20260506082627 | 46 | 247 | 0.9 | 1.7 | 0.00 | 0.00 | 0.00 | 65 | 1014.4 |
| 20260506082122 | 46 | 207 | 1.7 | 2.6 | 0.00 | 0.00 | 0.00 | 66 | 1014.4 |
| 20260506081621 | 46 | 283 | 0.0 | 0.0 | 0.00 | 0.00 | 0.00 | 67 | 1014.7 |
| 20260506081118 | 44 | 247 | 1.7 | 2.6 | 0.00 | 0.00 | 0.00 | 71 | 1014.4 |
| 20260506080616 | 44 | 248 | 0.9 | 0.9 | 0.00 | 0.00 | 0.00 | 74 | 1014.7 |
| 20260506080112 | 44 | 14 | 0.0 | 0.0 | 0.00 | 0.00 | 0.00 | 75 | 1014.7 |
| 20260506073055 | 46 | 296 | 0.9 | 0.9 | 0.00 | 0.00 | 0.00 | 73 | 1014.8 |
| 20260506072552 | 46 | 308 | 0.9 | 0.9 | 0.00 | 0.00 | 0.00 | 73 | 1014.9 |
| 20260506072051 | 46 | 252 | 0.9 | 0.9 | 0.00 | 0.00 | 0.00 | 72 | 1015.0 |
| 20260506071548 | 46 | 314 | 0.9 | 0.9 | 0.00 | 0.00 | 0.00 | 72 | 1014.8 |
| 20260506071045 | 46 | 327 | 0.0 | 0.0 | 0.00 | 0.00 | 0.00 | 71 | 1014.9 |
| 20260506070542 | 46 | 263 | 0.9 | 0.9 | 0.00 | 0.00 | 0.00 | 71 | 1014.8 |
| 20260506062016 | 48 | 82 | 0.0 | 0.0 | 0.00 | 0.00 | 0.00 | 68 | 1014.7 |
| 20260506061512 | 48 | 47 | 0.0 | 0.0 | 0.00 | 0.00 | 0.00 | 69 | 1014.4 |
| 20260506061010 | 49 | 36 | 0.0 | 0.0 | 0.00 | 0.00 | 0.00 | 68 | 1014.3 |
| 20260506060508 | 48 | 29 | 0.0 | 0.9 | 0.00 | 0.00 | 0.00 | 68 | 1014.4 |
| 20260506050937 | 50 | 63 | 0.0 | 0.0 | 0.00 | 0.02 | 0.02 | 67 | 1014.6 |
| 20260506050435 | 50 | 58 | 0.0 | 0.0 | 0.00 | 0.02 | 0.02 | 67 | 1014.4 |
| 20260506044925 | 50 | 7 | 0.9 | 0.9 | 0.00 | 0.02 | 0.02 | 66 | 1014.4 |
| 20260506044424 | 50 | 345 | 0.9 | 1.7 | 0.00 | 0.02 | 0.02 | 66 | 1014.3 |
| 20260506043920 | 51 | 349 | 1.7 | 1.7 | 0.00 | 0.02 | 0.02 | 66 | 1014.1 |
| 20260506043417 | 51 | 272 | 1.7 | 1.7 | 0.00 | 0.02 | 0.02 | 65 | 1014.0 |
| 20260506042915 | 51 | 6 | 3.5 | 6.1 | 0.00 | 0.02 | 0.02 | 65 | 1013.9 |
| 20260506042414 | 51 | 5 | 1.7 | 2.6 | 0.00 | 0.02 | 0.02 | 66 | 1014.2 |
| 20260506041912 | 51 | 268 | 1.7 | 2.6 | 0.00 | 0.02 | 0.02 | 66 | 1014.3 |
| 20260506041409 | 51 | 320 | 3.5 | 4.3 | 0.00 | 0.02 | 0.02 | 65 | 1013.7 |
| 20260506040906 | 51 | 285 | 2.6 | 2.6 | 0.00 | 0.02 | 0.02 | 64 | 1013.9 |
| 20260506040404 | 52 | 326 | 2.6 | 2.6 | 0.00 | 0.02 | 0.02 | 62 | 1013.9 |
| 20260506035859 | 52 | 272 | 1.7 | 1.7 | 0.00 | 0.02 | 0.02 | 61 | 1013.5 |
| 20260506035357 | 53 | 279 | 3.5 | 4.3 | 0.00 | 0.02 | 0.02 | 60 | 1013.5 |
| 20260506034854 | 53 | 324 | 3.5 | 5.2 | 0.00 | 0.02 | 0.02 | 60 | 1013.4 |
| 20260506034351 | 53 | 263 | 4.3 | 9.6 | 0.00 | 0.02 | 0.02 | 60 | 1013.5 |
| 20260506033848 | 53 | 278 | 4.3 | 5.2 | 0.00 | 0.02 | 0.02 | 61 | 1013.4 |
| 20260506033345 | 53 | 253 | 2.6 | 2.6 | 0.00 | 0.02 | 0.02 | 62 | 1013.4 |
| 20260506032842 | 53 | 290 | 2.6 | 2.6 | 0.00 | 0.02 | 0.02 | 63 | 1013.5 |
| 20260506032339 | 52 | 313 | 8.7 | 11.3 | 0.00 | 0.02 | 0.02 | 63 | 1013.3 |
| 20260506031836 | 52 | 278 | 7.0 | 7.8 | 0.00 | 0.02 | 0.02 | 64 | 1012.9 |
| 20260506031333 | 52 | 343 | 2.6 | 6.1 | 0.00 | 0.02 | 0.02 | 64 | 1012.9 |
| 20260506030830 | 53 | 350 | 2.6 | 4.3 | 0.00 | 0.02 | 0.02 | 63 | 1013.2 |
| 20260506030329 | 53 | 333 | 4.3 | 7.0 | 0.00 | 0.02 | 0.02 | 63 | 1012.9 |
| 20260506025825 | 52 | 297 | 4.3 | 6.1 | 0.00 | 0.02 | 0.02 | 63 | 1012.8 |
| 20260506025321 | 52 | 317 | 7.8 | 9.6 | 0.00 | 0.02 | 0.02 | 63 | 1012.8 |
| 20260506024819 | 53 | 274 | 6.1 | 7.8 | 0.00 | 0.02 | 0.02 | 63 | 1012.5 |
| 20260506024315 | 53 | 321 | 6.1 | 7.8 | 0.00 | 0.02 | 0.02 | 62 | 1012.5 |
| 20260506023811 | 53 | 57 | 4.3 | 6.1 | 0.00 | 0.02 | 0.02 | 61 | 1012.3 |
| 20260506023308 | 53 | 296 | 6.1 | 7.0 | 0.00 | 0.02 | 0.02 | 61 | 1012.0 |
| 20260506022805 | 53 | 271 | 4.3 | 6.1 | 0.00 | 0.02 | 0.02 | 59 | 1012.2 |
| 20260506022305 | 55 | 310 | 6.1 | 8.7 | 0.00 | 0.02 | 0.02 | 58 | 1012.0 |
| 20260506021801 | 55 | 36 | 4.3 | 6.1 | 0.00 | 0.02 | 0.02 | 57 | 1011.9 |
| 20260506021258 | 56 | 300 | 2.6 | 2.6 | 0.00 | 0.02 | 0.02 | 56 | 1011.8 |
| 20260506020754 | 56 | 332 | 2.6 | 4.3 | 0.00 | 0.02 | 0.02 | 59 | 1011.5 |
| 20260506020252 | 57 | 333 | 0.0 | 0.9 | 0.00 | 0.02 | 0.02 | 61 | 1011.3 |
| 20260506015749 | 57 | 243 | 0.0 | 0.0 | 0.00 | 0.02 | 0.02 | 60 | 1010.8 |
| 20260506015247 | 57 | 257 | 0.0 | 0.0 | 0.00 | 0.02 | 0.02 | 59 | 1010.6 |
| 20260506014743 | 57 | 290 | 0.0 | 0.0 | 0.00 | 0.02 | 0.02 | 58 | 1010.6 |
| 20260506014240 | 58 | 233 | 0.9 | 0.9 | 0.00 | 0.02 | 0.02 | 57 | 1010.7 |
| 20260506013737 | 58 | 227 | 1.7 | 1.7 | 0.00 | 0.02 | 0.02 | 56 | 1010.7 |
| 20260506013234 | 58 | 201 | 0.9 | 1.7 | 0.00 | 0.02 | 0.02 | 55 | 1010.5 |
| 20260506012730 | 58 | 188 | 0.9 | 1.7 | 0.00 | 0.02 | 0.02 | 55 | 1010.5 |
| 20260506012228 | 59 | 194 | 0.0 | 0.9 | 0.00 | 0.02 | 0.02 | 55 | 1010.6 |
| 20260506011725 | 59 | 255 | 0.9 | 0.9 | 0.00 | 0.02 | 0.02 | 53 | 1010.3 |
| 20260506011221 | 59 | 211 | 1.7 | 2.6 | 0.00 | 0.02 | 0.02 | 53 | 1010.5 |
| 20260506010720 | 59 | 185 | 3.5 | 4.3 | 0.00 | 0.02 | 0.02 | 51 | 1010.7 |
| 20260506010217 | 60 | 215 | 0.9 | 0.9 | 0.00 | 0.02 | 0.02 | 52 | 1010.3 |
| 20260506005714 | 61 | 216 | 0.9 | 1.7 | 0.00 | 0.02 | 0.02 | 50 | 1010.3 |
| 20260506005210 | 61 | 249 | 3.5 | 4.3 | 0.00 | 0.02 | 0.02 | 49 | 1010.2 |
| 20260506004706 | 61 | 254 | 4.3 | 6.1 | 0.00 | 0.02 | 0.02 | 50 | 1010.0 |
| 20260506004204 | 61 | 242 | 2.6 | 2.6 | 0.00 | 0.02 | 0.02 | 52 | 1010.0 |
| 20260506003700 | 59 | 310 | 0.9 | 1.7 | 0.00 | 0.02 | 0.02 | 57 | 1010.7 |
| 20260506003157 | 60 | 252 | 2.6 | 4.3 | 0.00 | 0.02 | 0.02 | 60 | 1010.7 |
| 20260506002652 | 61 | 300 | 1.7 | 1.7 | 0.00 | 0.02 | 0.02 | 51 | 1010.3 |
| 20260506002149 | 61 | 252 | 0.9 | 0.9 | 0.00 | 0.02 | 0.02 | 46 | 1010.3 |
| 20260506001644 | 61 | 270 | 3.5 | 5.2 | 0.00 | 0.02 | 0.02 | 46 | 1010.2 |
| 20260506001142 | 62 | 285 | 1.7 | 2.6 | 0.00 | 0.02 | 0.02 | 45 | 1010.1 |
| 20260506000640 | 62 | 276 | 1.7 | 5.2 | 0.00 | 0.02 | 0.02 | 45 | 1010.3 |
| 20260506000137 | 62 | 278 | 0.9 | 0.9 | 0.00 | 0.02 | 0.02 | 45 | 1010.2 |
| 20260505235635 | 62 | 226 | 1.7 | 2.6 | 0.00 | 0.02 | 0.02 | 45 | 1010.3 |
| 20260505235132 | 62 | 201 | 0.0 | 0.9 | 0.00 | 0.02 | 0.02 | 45 | 1010.1 |
| 20260505234628 | 63 | 13 | 1.7 | 1.7 | 0.00 | 0.02 | 0.02 | 46 | 1010.2 |
| 20260505234125 | 65 | 78 | 0.0 | 0.0 | 0.00 | 0.02 | 0.02 | 44 | 1010.0 |
| 20260505233622 | 66 | 240 | 1.7 | 1.7 | 0.00 | 0.02 | 0.02 | 41 | 1010.2 |
| 20260505233120 | 65 | 267 | 0.9 | 0.9 | 0.00 | 0.02 | 0.02 | 44 | 1010.2 |
| 20260505232617 | 66 | 247 | 1.7 | 2.6 | 0.00 | 0.02 | 0.02 | 43 | 1010.3 |
| 20260505232115 | 66 | 288 | 2.6 | 4.3 | 0.00 | 0.02 | 0.02 | 41 | 1010.2 |
| 20260505231611 | 65 | 340 | 0.9 | 1.7 | 0.00 | 0.02 | 0.02 | 42 | 1010.5 |
| 20260505231110 | 64 | 248 | 1.7 | 2.6 | 0.00 | 0.02 | 0.02 | 43 | 1010.3 |
| 20260505230608 | 64 | 272 | 2.6 | 4.3 | 0.00 | 0.02 | 0.02 | 43 | 1010.7 |
| 20260505225600 | 65 | 299 | 1.7 | 2.6 | 0.00 | 0.02 | 0.02 | 43 | 1010.8 |
| 20260505225056 | 65 | 293 | 3.5 | 4.3 | 0.00 | 0.02 | 0.02 | 46 | 1010.8 |
| 20260505224553 | 64 | 268 | 1.7 | 2.6 | 0.00 | 0.02 | 0.02 | 46 | 1010.5 |
| 20260505224050 | 61 | 349 | 0.0 | 0.0 | 0.00 | 0.02 | 0.02 | 52 | 1010.7 |
| 20260505223547 | 62 | 323 | 3.5 | 5.2 | 0.00 | 0.02 | 0.02 | 48 | 1010.8 |
| 20260505223044 | 62 | 169 | 2.6 | 2.6 | 0.00 | 0.02 | 0.02 | 48 | 1010.7 |
| 20260505222540 | 62 | 207 | 1.7 | 1.7 | 0.00 | 0.02 | 0.02 | 48 | 1010.8 |
| 20260505222037 | 62 | 318 | 0.0 | 0.0 | 0.00 | 0.02 | 0.02 | 47 | 1010.9 |
| 20260505221534 | 61 | 192 | 1.7 | 1.7 | 0.00 | 0.02 | 0.02 | 51 | 1011.2 |
| 20260505221030 | 61 | 203 | 0.9 | 1.7 | 0.00 | 0.02 | 0.02 | 51 | 1011.4 |
| 20260505220528 | 60 | 264 | 2.6 | 4.3 | 0.00 | 0.02 | 0.02 | 56 | 1011.3 |
| 20260505220025 | 60 | 233 | 2.6 | 2.6 | 0.00 | 0.02 | 0.02 | 55 | 1011.4 |
| 20260505215523 | 59 | 227 | 2.6 | 4.3 | 0.00 | 0.02 | 0.02 | 55 | 1011.5 |
| 20260505215021 | 58 | 216 | 3.5 | 4.3 | 0.00 | 0.02 | 0.02 | 61 | 1011.8 |
| 20260505214519 | 56 | 261 | 4.3 | 7.8 | 0.07 | 0.02 | 0.02 | 71 | 1012.3 |
| 20260505214015 | 56 | 257 | 4.3 | 6.1 | 0.07 | 0.02 | 0.02 | 70 | 1012.5 |
| 20260505213513 | 57 | 215 | 6.1 | 8.7 | 0.00 | 0.01 | 0.01 | 64 | 1012.5 |
| 20260505213009 | 59 | 270 | 2.6 | 4.3 | 0.00 | 0.01 | 0.01 | 62 | 1012.1 |
| 20260505212505 | 62 | 266 | 3.5 | 6.1 | 0.00 | 0.01 | 0.01 | 52 | 1012.0 |
| 20260505212002 | 63 | 226 | 1.7 | 2.6 | 0.00 | 0.01 | 0.01 | 48 | 1011.9 |
| 20260505211500 | 63 | 146 | 0.0 | 0.9 | 0.00 | 0.01 | 0.01 | 48 | 1011.9 |
| 20260505210956 | 63 | 246 | 0.9 | 1.7 | 0.00 | 0.01 | 0.01 | 45 | 1011.6 |
| 20260505210453 | 63 | 240 | 0.9 | 0.9 | 0.00 | 0.01 | 0.01 | 45 | 1011.8 |
| 20260505205950 | 63 | 236 | 0.9 | 1.7 | 0.00 | 0.01 | 0.01 | 44 | 1011.6 |
| 20260505205449 | 64 | 249 | 3.5 | 5.2 | 0.00 | 0.01 | 0.01 | 44 | 1011.9 |
| 20260505204945 | 63 | 18 | 1.7 | 1.7 | 0.00 | 0.01 | 0.01 | 45 | 1011.8 |
| 20260505204443 | 66 | 260 | 1.7 | 1.7 | 0.00 | 0.01 | 0.01 | 43 | 1012.0 |
| 20260505203940 | 64 | 231 | 1.7 | 2.6 | 0.00 | 0.01 | 0.01 | 43 | 1011.6 |
| 20260505203436 | 63 | 4 | 1.7 | 1.7 | 0.00 | 0.01 | 0.01 | 45 | 1012.1 |
| 20260505202933 | 66 | 140 | 2.6 | 2.6 | 0.00 | 0.01 | 0.01 | 42 | 1011.8 |
| 20260505202429 | 65 | 203 | 0.9 | 0.9 | 0.00 | 0.01 | 0.01 | 42 | 1012.2 |
| 20260505201925 | 65 | 254 | 0.9 | 1.7 | 0.00 | 0.01 | 0.01 | 43 | 1012.2 |
| 20260505201422 | 63 | 275 | 2.6 | 4.3 | 0.00 | 0.01 | 0.01 | 46 | 1012.1 |
| 20260505200921 | 64 | 30 | 1.7 | 2.6 | 0.00 | 0.01 | 0.01 | 45 | 1012.1 |
| 20260505200418 | 63 | 245 | 0.9 | 0.9 | 0.00 | 0.01 | 0.01 | 47 | 1012.0 |
| 20260505195913 | 62 | 294 | 2.6 | 4.3 | 0.00 | 0.01 | 0.01 | 50 | 1012.0 |
| 20260505195411 | 60 | 100 | 0.0 | 0.9 | 0.00 | 0.01 | 0.01 | 51 | 1011.9 |
| 20260505194908 | 60 | 260 | 2.6 | 2.6 | 0.00 | 0.01 | 0.01 | 52 | 1012.3 |
| 20260505194406 | 60 | 336 | 4.3 | 5.2 | 0.00 | 0.01 | 0.01 | 53 | 1012.3 |
| 20260505193905 | 59 | 260 | 4.3 | 7.8 | 0.00 | 0.01 | 0.01 | 55 | 1012.7 |
| 20260505193403 | 58 | 223 | 4.3 | 7.0 | 0.00 | 0.01 | 0.01 | 54 | 1012.7 |
| 20260505192901 | 58 | 307 | 5.2 | 7.8 | 0.00 | 0.01 | 0.01 | 55 | 1012.8 |
| 20260505192359 | 59 | 253 | 3.5 | 7.0 | 0.00 | 0.01 | 0.01 | 56 | 1012.7 |
| 20260505191856 | 60 | 224 | 4.3 | 7.0 | 0.00 | 0.01 | 0.01 | 55 | 1012.8 |
| 20260505191354 | 61 | 299 | 2.6 | 4.3 | 0.00 | 0.01 | 0.01 | 56 | 1012.9 |
| 20260505190851 | 60 | 83 | 0.9 | 1.7 | 0.00 | 0.01 | 0.01 | 56 | 1012.9 |
| 20260505190346 | 61 | 197 | 2.6 | 2.6 | 0.00 | 0.01 | 0.01 | 56 | 1013.3 |
| 20260505185842 | 59 | 151 | 1.7 | 1.7 | 0.00 | 0.01 | 0.01 | 60 | 1013.2 |
| 20260505185339 | 58 | 99 | 0.0 | 0.9 | 0.00 | 0.01 | 0.01 | 63 | 1012.9 |
| 20260505184835 | 58 | 252 | 2.6 | 4.3 | 0.00 | 0.01 | 0.01 | 66 | 1012.8 |
| 20260505184332 | 57 | 207 | 0.9 | 1.7 | 0.00 | 0.01 | 0.01 | 68 | 1012.9 |
| 20260505183829 | 56 | 224 | 2.6 | 4.3 | 0.00 | 0.01 | 0.01 | 71 | 1013.2 |
| 20260505183326 | 56 | 176 | 0.0 | 0.9 | 0.05 | 0.01 | 0.01 | 74 | 1013.2 |
| 20260505182823 | 56 | 170 | 3.5 | 4.3 | 0.05 | 0.01 | 0.01 | 71 | 1013.4 |
| 20260505182319 | 57 | 109 | 4.3 | 7.0 | 0.00 | 0.00 | 0.00 | 66 | 1013.0 |
| 20260505181816 | 57 | 114 | 3.5 | 5.2 | 0.00 | 0.00 | 0.00 | 64 | 1013.0 |
| 20260505181314 | 59 | 118 | 2.6 | 4.3 | 0.00 | 0.00 | 0.00 | 52 | 1013.4 |
| 20260505180810 | 59 | 129 | 1.7 | 1.7 | 0.00 | 0.00 | 0.00 | 50 | 1012.8 |
| 20260505180306 | 58 | 154 | 1.7 | 2.6 | 0.00 | 0.00 | 0.00 | 49 | 1012.9 |
| 20260505175803 | 61 | 131 | 0.9 | 0.9 | 0.00 | 0.00 | 0.00 | 45 | 1013.2 |
| 20260505175259 | 61 | 111 | 0.9 | 0.9 | 0.00 | 0.00 | 0.00 | 46 | 1013.0 |
| 20260505174756 | 60 | 343 | 0.0 | 0.0 | 0.00 | 0.00 | 0.00 | 47 | 1012.7 |
| 20260505174253 | 60 | 164 | 2.6 | 2.6 | 0.00 | 0.00 | 0.00 | 46 | 1012.8 |
| 20260505173749 | 61 | 59 | 2.6 | 2.6 | 0.00 | 0.00 | 0.00 | 45 | 1012.8 |
| 20260505173246 | 60 | 51 | 0.9 | 1.7 | 0.00 | 0.00 | 0.00 | 47 | 1012.9 |
| 20260505172743 | 60 | 329 | 2.6 | 2.6 | 0.00 | 0.00 | 0.00 | 47 | 1012.6 |
| 20260505172240 | 60 | 35 | 0.0 | 0.0 | 0.00 | 0.00 | 0.00 | 46 | 1012.7 |
| 20260505171740 | 59 | 55 | 2.6 | 2.6 | 0.00 | 0.00 | 0.00 | 47 | 1012.6 |
| 20260505171237 | 58 | 284 | 0.9 | 0.9 | 0.00 | 0.00 | 0.00 | 48 | 1012.8 |
| 20260505170734 | 58 | 5 | 2.6 | 4.3 | 0.00 | 0.00 | 0.00 | 49 | 1013.0 |
| 20260505170231 | 57 | 7 | 3.5 | 4.3 | 0.00 | 0.00 | 0.00 | 49 | 1012.7 |
| 20260505165726 | 57 | 324 | 3.5 | 4.3 | 0.00 | 0.00 | 0.00 | 49 | 1012.9 |
| 20260505165222 | 57 | 302 | 2.6 | 4.3 | 0.00 | 0.00 | 0.00 | 49 | 1013.0 |
| 20260505164718 | 57 | 288 | 3.5 | 5.2 | 0.00 | 0.00 | 0.00 | 50 | 1013.0 |
| 20260505164215 | 57 | 315 | 0.9 | 1.7 | 0.00 | 0.00 | 0.00 | 51 | 1012.7 |
| 20260505163713 | 56 | 354 | 5.2 | 7.0 | 0.00 | 0.00 | 0.00 | 51 | 1012.7 |
| 20260505163211 | 56 | 29 | 3.5 | 4.3 | 0.00 | 0.00 | 0.00 | 53 | 1012.9 |
| 20260505162708 | 56 | 324 | 4.3 | 5.2 | 0.00 | 0.00 | 0.00 | 53 | 1012.9 |
| 20260505162206 | 55 | 13 | 5.2 | 6.1 | 0.00 | 0.00 | 0.00 | 55 | 1012.9 |
| 20260505161702 | 55 | 4 | 5.2 | 8.7 | 0.00 | 0.00 | 0.00 | 55 | 1013.0 |
| 20260505161200 | 55 | 344 | 4.3 | 6.1 | 0.00 | 0.00 | 0.00 | 58 | 1012.9 |
| 20260505160657 | 54 | 3 | 3.5 | 5.2 | 0.00 | 0.00 | 0.00 | 60 | 1013.2 |
| 20260505160155 | 53 | 327 | 4.3 | 8.7 | 0.00 | 0.00 | 0.00 | 61 | 1013.5 |
| 20260505153134 | 53 | 330 | 3.5 | 7.8 | 0.00 | 0.00 | 0.00 | 70 | 1013.5 |
| 20260505152630 | 54 | 341 | 3.5 | 6.1 | 0.00 | 0.00 | 0.00 | 66 | 1013.6 |
| 20260505152126 | 53 | 339 | 4.3 | 6.1 | 0.00 | 0.00 | 0.00 | 66 | 1013.7 |
| 20260505151622 | 54 | 268 | 3.5 | 4.3 | 0.00 | 0.00 | 0.00 | 66 | 1013.7 |
| 20260505151120 | 54 | 349 | 2.6 | 6.1 | 0.00 | 0.00 | 0.00 | 66 | 1013.5 |
| 20260505150615 | 54 | 0 | 5.2 | 7.0 | 0.00 | 0.00 | 0.00 | 65 | 1013.7 |
| 20260505150113 | 54 | 281 | 2.6 | 4.3 | 0.00 | 0.00 | 0.00 | 67 | 1013.4 |
| 20260505140541 | 57 | 239 | 0.0 | 0.9 | 0.00 | 0.00 | 0.00 | 50 | 1013.4 |
| 20260505124954 | 57 | 264 | 0.9 | 1.7 | 0.00 | 0.00 | 0.00 | 43 | 1012.5 |
| 20260505124452 | 57 | 303 | 0.9 | 0.9 | 0.00 | 0.00 | 0.00 | 43 | 1012.3 |
| 20260505123948 | 57 | 283 | 1.7 | 2.6 | 0.00 | 0.00 | 0.00 | 44 | 1012.7 |
| 20260505123444 | 58 | 283 | 2.6 | 5.2 | 0.00 | 0.00 | 0.00 | 42 | 1012.2 |
| 20260505122940 | 57 | 295 | 3.5 | 4.3 | 0.00 | 0.00 | 0.00 | 41 | 1012.5 |
| 20260505122437 | 58 | 276 | 3.5 | 5.2 | 0.00 | 0.00 | 0.00 | 41 | 1012.5 |
| 20260505121934 | 58 | 247 | 0.9 | 1.7 | 0.00 | 0.00 | 0.00 | 42 | 1012.3 |
| 20260505121431 | 58 | 281 | 1.7 | 1.7 | 0.00 | 0.00 | 0.00 | 42 | 1012.5 |
| 20260505120927 | 58 | 225 | 4.3 | 8.7 | 0.00 | 0.00 | 0.00 | 42 | 1012.5 |
| 20260505120424 | 58 | 276 | 4.3 | 6.1 | 0.00 | 0.00 | 0.00 | 42 | 1012.3 |
| 20260505115922 | 57 | 259 | 2.6 | 4.3 | 0.00 | 0.00 | 0.00 | 42 | 1012.3 |
| 20260505115419 | 58 | 194 | 1.7 | 1.7 | 0.00 | 0.00 | 0.00 | 43 | 1012.2 |
| 20260505114917 | 58 | 287 | 0.9 | 1.7 | 0.00 | 0.00 | 0.00 | 42 | 1012.5 |
| 20260505114413 | 58 | 271 | 1.7 | 1.7 | 0.00 | 0.00 | 0.00 | 43 | 1012.5 |
| 20260505113910 | 58 | 282 | 0.9 | 0.9 | 0.00 | 0.00 | 0.00 | 43 | 1012.5 |
| 20260505113407 | 58 | 261 | 1.7 | 1.7 | 0.00 | 0.00 | 0.00 | 43 | 1012.1 |
| 20260505112902 | 58 | 234 | 2.6 | 2.6 | 0.00 | 0.00 | 0.00 | 43 | 1012.3 |
| 20260505112400 | 58 | 216 | 2.6 | 2.6 | 0.00 | 0.00 | 0.00 | 43 | 1012.1 |
| 20260505111856 | 58 | 246 | 0.9 | 1.7 | 0.00 | 0.00 | 0.00 | 42 | 1012.2 |
| 20260505111351 | 59 | 249 | 2.6 | 2.6 | 0.00 | 0.00 | 0.00 | 42 | 1012.1 |
| 20260505110847 | 59 | 200 | 1.7 | 1.7 | 0.00 | 0.00 | 0.00 | 42 | 1012.0 |
| 20260505110345 | 59 | 212 | 2.6 | 2.6 | 0.00 | 0.00 | 0.00 | 41 | 1012.3 |